Find Starlink 36548

NORAD ID: 67617 Int'l Des: 2026-020 Owner: SPXS Country: US Constellation: starlink operational
LEOCIRCULAR

現在のビュー

3D地球を読み込み中...

Starlink 36548について

説明を読み込み中...

次回通過

Passes for default location (London). Set your location on the main map for personalized predictions.

高度履歴

Loading altitude history...

軌道要素

1 67617U 26020A 26146.13027664 .00031344 00000-0 11432-2 0 9993
2 67617 43.0023 62.7485 0001420 273.3409 86.7280 15.27595020 17957
Epoch: May 26, 2026 • Age: 14 hours

現在のステータス

高度 485.9 km
速度 7.62 km/s
衛星直下点 -17.20°S, 101.19°W
打ち上げ日 Jan 30, 2026
運用期間 0.3 years
タイプ internet

技術仕様

分類 Payload
質量 575.00 kg
乾燥質量 530.00 kg
総質量 575.00 kg
長さ 0.30 m
直径 4.10 m
スパン 29.00 m
形状 Box + pan
製造者 SPXS
バスタイプ Starlink V2MO
フェーズステータス In Orbit
所有者/国 SPXS/US

Most Searched